Regional Weather Roundup
Issued by NWS

Home | Current Version | Previous Version | Graphics & Text | Print | Product List | Glossary On
Versions: 1 2 3 4 5 6 7 8 9 10 11 12 13 14 15 16 17 18 19 20 21 22 23 24 25 26 27 28 29 30 31 32 33 34 35 36 37 38 39 40 41 42 43 44 45 46 47 48 49 50
000
ASUS43 KOAX 301502
RWRNE

WEATHER ROUNDUP FOR NEBRASKA
NATIONAL WEATHER SERVICE OMAHA NE
900 AM CST FRI JAN 30 2015

NOTES: SATELLITE DATA IS BEING USED TO AUGMENT CLOUD COVER ABOVE
       12000 FEET.
       "FAIR" INDICATES FEW OR NO CLOUDS BELOW 12,000 FEET WITH NO
       SIGNIFICANT WEATHER AND/OR OBSTRUCTIONS TO VISIBILITY.

  * THESE STATIONS DO NOT REPORT WEATHER SUCH AS RAIN...SNOW OR FOG.

NEZ001>004-019>022-054>056-301600-
NEBRASKA PANHANDLE

CITY           SKY/WX    TMP DP  RH WIND       PRES   REMARKS
SCOTTSBLUFF    CLOUDY    29  24  82 CALM      30.21F
ALLIANCE       CLOUDY    27  21  78 S5        30.21F WCI  22
CHADRON        CLOUDY    32  21  64 SW8       30.21S WCI  25
SIDNEY         MOCLDY    30  23  75 S8        30.21F WCI  22
$$

NEZ057>060-069>072-079>082-301600-
SOUTHWEST NEBRASKA

CITY           SKY/WX    TMP DP  RH WIND       PRES   REMARKS
NORTH PLATTE   MOCLDY    27  22  81 E7        30.33F WCI  19
IMPERIAL       CLOUDY    29  22  75 SE9       30.29F WCI  20
MCCOOK         CLOUDY    27  21  78 CALM      30.36F
$$

NEZ005>010-023>029-035>040-094-301600-
NORTH CENTRAL NEBRASKA

CITY           SKY/WX    TMP DP  RH WIND       PRES   REMARKS
VALENTINE      MOCLDY    26  20  77 S5        30.27F WCI  20
BROKEN BOW     CLOUDY    25  21  85 E5        30.36F WCI  19
ORD            PTSUNNY   22  19  89 SE7       30.40F WCI  13
$$

NEZ041-046>049-061>064-073>077-083>087-301600-
SOUTH CENTRAL NEBRASKA

CITY           SKY/WX    TMP DP  RH WIND       PRES   REMARKS
GRAND ISLAND   PTSUNNY   24  20  84 S14       30.46F WCI  12
AURORA         PTSUNNY   23  22  96 S7        30.46F WCI  15
HASTINGS       PTSUNNY   22  19  89 S8        30.44F WCI  12
KEARNEY *      PTSUNNY   25  21  86 S9        30.42F WCI  15
$$

NEZ011>018-030>034-042>045-301600-
NORTHEAST NEBRASKA

CITY           SKY/WX    TMP DP  RH WIND       PRES   REMARKS
NORFOLK        SUNNY     23  20  88 S10       30.45F WCI  12
ALBION         MOSUNNY   22  19  89 S6        30.44F WCI  15
BLAIR          MOSUNNY   22  18  87 SE3       30.51S
COLUMBUS *     MOSUNNY   19  12  73 CALM      30.50R
TEKAMAH        MOSUNNY   20  17  88 SE6       30.54R WCI  12
$$

NEZ050>053-065>068-078-088>093-301600-
SOUTHEAST NEBRASKA

CITY           SKY/WX    TMP DP  RH WIND       PRES   REMARKS
LINCOLN        MOSUNNY   19  15  84 CALM      30.53S
OMAHA EPPLEY   MOSUNNY   22  17  81 S8        30.55R WCI  12
FALLS CITY     MOSUNNY   19  17  92 CALM      30.55S
$$

NEZ044-045-051>053-067-301600-
OMAHA AREA

CITY           SKY/WX    TMP DP  RH WIND       PRES   REMARKS
OMAHA EPPLEY   MOSUNNY   22  17  81 S8        30.55R WCI  12
BLAIR          MOSUNNY   22  18  87 SE3       30.51S
OFFUTT AFB     SUNNY     21  19  92 SE2       30.54R
$$


USA.gov is the U.S. government's official web portal to all federal, state and local government web resources and services.